Location: Berkeley
(37.8716°N, 122.2727°W)
Time: 20:09:01
(UTC-07:00)

Envisat - Pass Details

Date: 13 May 2026
Orbit: 761 x 763 km, 98.4° (Epoch: 9 June)

Event Time Altitude Azimuth Distance (km) Brightness Sun altitude
Rises 04:51:53 0° 357° (N) 3,230 6.7 -12.6°
Reaches altitude 10° 04:54:40 10° 342° (NNW) 2,300 5.7 -12.1°
Maximum altitude 04:58:24 21° 294° (WNW) 1,658 4.5 -11.5°
Enters shadow 05:01:17 13° 254° (WSW) 2,066 4.6 -11.1°
